Weather History for KOQT - August, 2014

Change the Weather History Date:

Sunday, August 10, 2014

  Actual Average (KTYS) Record (KTYS)
Temperature  
Mean Temperature 78 °F 78 °F  
Max Temperature 82 °F 88 °F 100 °F (1980)
Min Temperature 73 °F 69 °F 54 °F (1879)
Degree Days  
Heating Degree Days 0 0  
Month to date heating degree days 0  
Since 1 June heating degree days 4  
Since 1 July heating degree days 0  
Cooling Degree Days 12 13  
Month to date cooling degree days 130  
Year to date cooling degree days 1014  
Since 1 June cooling degree days 852  
Growing Degree Days 28 (Base 50)    
Moisture  
Dew Point 73 °F    
Average Humidity 89    
Maximum Humidity 94    
Minimum Humidity 74    
Precipitation  
Precipitation 0.26 in 0.12 in 2.10 in (1920)
Month to date precipitation 1.24  
Year to date precipitation 31.57  
Snow  
Snow 0.00 in 0.00 in - ()
Month to date snowfall 0.0  
Since 1 June snowfall 0.0  
Since 1 July snowfall 0.0  
Snow Depth -    
Sea Level Pressure  
Sea Level Pressure 29.99 in    
Wind  
Wind Speed 1 mph (South)    
Max Wind Speed 7 mph    
Max Gust Speed -    
Visibility 7 miles    
Events Rain    
T = Trace of Precipitation, MM = Missing Value Source: NWS Daily Summary

Daily Weather History Graph

Daily Weather History Graph

Search for Another Location

Airport or City:

Trip Planner

Search our weather history database for the weather conditions in past years. The results will help you decide how hot, cold, wet, or windy it might be!

Date:

Astronomy

Aug. 10, 2014 Rise Set
Actual Time 6:51 AM EDT 8:32 PM EDT
Civil Twilight 6:23 AM EDT 9:00 PM EDT
Nautical Twilight 5:50 AM EDT 9:33 PM EDT
Astronomical Twilight 5:15 AM EDT 10:08 PM EDT
Moon 8:21 PM EDT (8/10) 6:41 AM EDT (8/10)
Length of Visible Light 14h 36m
Length of Day
13h 41m
Full, 100% of the Moon is Illuminated
Aug 10
Full
Aug 10
Full
Aug 17
Last Quarter
Aug 25
New
Sep 2
First Quarter

Hourly Weather History & Observations

Time (EDT) Temp. Heat Index Dew Point Humidity Pressure Visibility Wind Dir Wind Speed Gust Speed Precip Events Conditions
12:53 AM 75.9 °F - 72.0 °F 87% 29.96 in 8.0 mi Calm Calm - N/A   Overcast
1:09 AM 75.0 °F - 73.0 °F 94% 30.00 in 1.8 mi Calm Calm - 0.07 in Rain Heavy Rain
1:15 AM 75.0 °F - 73.0 °F 94% 30.01 in 3.0 mi Calm Calm - 0.09 in Rain Light Rain
1:36 AM 75.0 °F - 73.0 °F 94% 30.01 in 5.0 mi Calm Calm - 0.09 in   Overcast
1:53 AM 75.0 °F - 73.0 °F 94% 29.96 in 6.0 mi Calm Calm - 0.10 in Rain Light Rain
2:22 AM 75.0 °F - 73.0 °F 94% 29.99 in 5.0 mi Calm Calm - 0.00 in   Mostly Cloudy
2:29 AM 75.0 °F - 73.0 °F 94% 29.99 in 5.0 mi Calm Calm - 0.00 in   Mostly Cloudy
2:53 AM 75.0 °F - 73.0 °F 94% 29.94 in 4.0 mi Calm Calm - 0.00 in   Overcast
3:01 AM 75.0 °F - 73.0 °F 94% 29.99 in 4.0 mi Calm Calm - N/A   Overcast
3:11 AM 75.0 °F - 73.0 °F 94% 30.00 in 5.0 mi Calm Calm - N/A   Overcast
3:44 AM 75.0 °F - 73.0 °F 94% 29.99 in 5.0 mi Calm Calm - N/A   Overcast
3:53 AM 75.0 °F - 73.0 °F 94% 29.94 in 5.0 mi Calm Calm - N/A   Overcast
4:12 AM 75.0 °F - 73.0 °F 94% 29.98 in 4.0 mi Calm Calm - N/A   Overcast
4:30 AM 75.0 °F - 73.0 °F 94% 29.99 in 4.0 mi Calm Calm - N/A   Overcast
4:42 AM 75.0 °F - 73.0 °F 94% 29.99 in 4.0 mi Calm Calm - N/A   Overcast
4:53 AM 75.0 °F - 73.0 °F 94% 29.94 in 4.0 mi Calm Calm - N/A   Overcast
5:12 AM 75.0 °F - 73.0 °F 94% 29.99 in 4.0 mi Calm Calm - N/A   Overcast
5:22 AM 75.0 °F - 73.0 °F 94% 29.99 in 4.0 mi Calm Calm - N/A   Overcast
5:40 AM 75.0 °F - 73.0 °F 94% 30.00 in 5.0 mi Calm Calm - N/A   Overcast
5:53 AM 75.0 °F - 73.0 °F 94% 29.96 in 6.0 mi Calm Calm - N/A   Overcast
6:53 AM 75.0 °F - 73.0 °F 94% 29.98 in 6.0 mi Calm Calm - N/A   Mostly Cloudy
7:53 AM 75.0 °F - 72.0 °F 90% 29.99 in 6.0 mi SSW 3.5 mph - 0.00 in   Overcast
8:53 AM 75.0 °F - 72.0 °F 90% 29.99 in 7.0 mi SSW 4.6 mph - N/A   Overcast
9:53 AM 75.0 °F - 72.0 °F 90% 30.00 in 7.0 mi Variable 4.6 mph - N/A   Overcast
10:04 AM 73.9 °F - 72.0 °F 93% 30.05 in 1.8 mi Calm Calm - 0.01 in Rain Rain
10:13 AM 75.0 °F - 73.0 °F 94% 30.05 in 3.0 mi Variable 3.5 mph - 0.03 in Rain Light Rain
10:53 AM 77.0 °F - 73.0 °F 88% 30.00 in 9.0 mi SSW 3.5 mph - 0.03 in   Overcast
11:10 AM 78.1 °F - 73.9 °F 87% 30.04 in 10.0 mi SSW 4.6 mph - N/A   Overcast
11:44 AM 79.0 °F - 73.9 °F 84% 30.05 in 10.0 mi Variable 5.8 mph - N/A   Mostly Cloudy
11:53 AM 81.0 °F 86.2 °F 73.9 °F 79% 30.00 in 10.0 mi South 5.8 mph - N/A   Mostly Cloudy
12:03 PM 82.0 °F 87.4 °F 73.0 °F 74% 30.05 in 10.0 mi Variable 4.6 mph - N/A   Scattered Clouds
12:24 PM 81.0 °F 85.2 °F 72.0 °F 74% 30.04 in 10.0 mi Variable 5.8 mph - N/A   Mostly Cloudy
12:53 PM 79.0 °F - 73.0 °F 82% 30.01 in 10.0 mi Variable 6.9 mph - 0.00 in Rain Light Rain
1:06 PM 73.9 °F - 71.1 °F 91% 30.06 in 1.5 mi Calm Calm - 0.02 in Rain Heavy Rain
1:16 PM 73.9 °F - 70.0 °F 87% 30.06 in 1.8 mi Calm Calm - 0.11 in Rain Light Rain
1:23 PM 75.0 °F - 71.1 °F 87% 30.05 in 10.0 mi East 5.8 mph - 0.11 in   Overcast
1:53 PM 75.9 °F - 72.0 °F 87% 29.99 in 10.0 mi Calm Calm - 0.11 in   Mostly Cloudy
2:53 PM 80.1 °F 84.2 °F 73.0 °F 79% 29.97 in 10.0 mi ESE 4.6 mph - N/A   Mostly Cloudy
3:53 PM 81.0 °F 85.2 °F 72.0 °F 74% 29.97 in 10.0 mi Variable 4.6 mph - N/A   Clear
4:53 PM 77.0 °F - 73.0 °F 88% 29.98 in 4.0 mi NNW 3.5 mph - 0.02 in Rain Rain
5:53 PM 80.1 °F 83.8 °F 72.0 °F 76% 29.95 in 10.0 mi Calm Calm - 0.00 in   Scattered Clouds
6:53 PM 80.1 °F 84.2 °F 73.0 °F 79% 29.94 in 10.0 mi Calm Calm - N/A   Partly Cloudy
7:53 PM 78.1 °F - 72.0 °F 81% 29.94 in 10.0 mi Calm Calm - N/A   Partly Cloudy
8:23 PM 78.1 °F - 73.0 °F 84% 29.98 in 10.0 mi Calm Calm - N/A   Mostly Cloudy
8:53 PM 77.0 °F - 73.0 °F 88% 29.94 in 10.0 mi Calm Calm - N/A   Mostly Cloudy
9:43 PM 77.0 °F - 73.9 °F 90% 30.01 in 10.0 mi Calm Calm - N/A   Mostly Cloudy
9:53 PM 75.9 °F - 73.9 °F 94% 29.96 in 10.0 mi Calm Calm - N/A   Mostly Cloudy
10:38 PM 75.9 °F - 73.9 °F 94% 30.02 in 10.0 mi Calm Calm - N/A   Overcast
10:53 PM 77.0 °F - 73.9 °F 90% 29.97 in 10.0 mi Calm Calm - N/A   Overcast